User: anonymous   Login
Location: Unspecified
(0.0000°N, 0.0000°E)
Time: 07:22:04
(UTC+00:00)
Language:

COSMOS 2481 - Orbit

View from above orbital plane
View from above orbital plane
View from above satellite
View from above satellite

Ground track
Ground track

The orbit data is extracted from the following two-line orbital elements,

1 38733U 12041A   24113.91637305  .00000023  00000-0  97486-4 0  9990
2 38733  82.4780 204.7784 0018078 349.9753  10.0963 12.42409473532231
Epoch (UTC): 22 April 2024 21:59:34
Eccentricity: 0.0018078
inclination: 82.4780°
perigee height: 1482 km
apogee height: 1510 km
right ascension of ascending node: 204.7784°
argument of perigee: 349.9753°
revolutions per day: 12.42409473
mean anomaly at epoch: 10.0963°
orbit number at epoch: 53223

The dashed part of the orbit path shows where the satellite is in the earth's shadow,  

DLR